• Join FlightAware (Why Join?)
  • Login
  • US Flag 
11:44AM EST


 

Airport Tracker/Info


-or-


 

Live Flight TrackerFlight Track Log ✈ EJM685 ✈ 26-Apr-2014 ✈ KBOS - KTEB

Flight Track Log - Related Links

Times and Time Zones

All times are in EDT time to prevent confusion due to time zone crossing. See the EJM685 flight status page for this flight to view local times or setup timezone preferences in your user account.

Time Position Orientation Groundspeed Altitude Reporting Facility
EDT Latitude Longitude Course Direction KTS MPH feet Rate Location/Type
08:58PM 42.3667 -70.9833 90° East 141 162 800  Level KA90
08:58PM 42.3667 -70.9667 90° East 152 175 1,900 2,947 Climbing KA90
08:59PM 42.3703 -70.9294 83° East 172 198 3,600 3,128 Climbing Boston Center
09:00PM 42.3875 -70.8319 77° East 267 307 6,800 3,393 Climbing Boston Center
09:01PM 42.3689 -70.7258 103° East 297 342 10,500 2,826 Climbing Boston Center
09:02PM 42.2908 -70.7111 172° South 340 391 12,500 2,628 Climbing Boston Center
09:03PM 42.2497 -70.8119 241° Southwest 323 372 15,800 1,820 Climbing Boston Center
09:04PM 42.2547 -70.9614 273° West 344 396 16,200 148 Climbing Boston Center
09:05PM 42.2483 -71.0967 266° West 337 388 16,100 -50 Descending Boston Center
09:06PM 42.2425 -71.2197 266° West 333 383 16,100  Level Boston Center
09:07PM 42.2361 -71.3417 266° West 330 380 16,100  Level Boston Center
09:08PM 42.2311 -71.4636 267° West 328 377 16,100  Level Boston Center
09:09PM 42.2244 -71.5853 266° West 328 377 16,100  Level Boston Center
09:10PM 42.2181 -71.7156 266° West 327 376 16,100  Level Boston Center
09:11PM 42.2117 -71.8364 266° West 327 376 16,100 -49 Level Boston Center
09:12PM 42.2050 -71.9622 266° West 327 376 16,000 98 Descending Boston Center
09:13PM 42.1986 -72.0831 266° West 326 375 16,300 492 Climbing Boston Center
09:14PM 42.1917 -72.2094 266° West 337 388 17,000 347 Climbing Boston Center
09:15PM 42.1844 -72.3369 266° West 341 392 17,000  Level Boston Center
09:16PM 42.1772 -72.4497 265° West 304 350 17,000  Level Boston Center
09:17PM 42.1708 -72.5708 266° West 303 349 17,000 295 Level Boston Center
09:18PM 42.1606 -72.6828 263° West 303 349 17,600 934 Climbing Boston Center
09:19PM 42.1372 -72.7936 254° West 306 352 18,900 694 Climbing Boston Center
09:20PM 42.1117 -72.9156 254° West 338 389 19,000 50 Climbing Boston Center
09:21PM 42.0833 -73.0494 254° West 343 395 19,000  Level Boston Center
09:22PM 42.0569 -73.1733 254° West 344 396 19,000  Level Boston Center
09:23PM 42.0314 -73.2981 255° West 345 397 19,000  Level Boston Center
09:24PM 42.0042 -73.4289 254° West 349 402 19,000  Level Boston Center
09:25PM 41.9769 -73.5531 254° West 348 400 19,000 -393 Level Boston Center
09:26PM 41.9497 -73.6764 254° West 348 400 18,200 -984 Descending Boston Center
09:27PM 41.9233 -73.7981 254° West 345 397 17,000 -595 Descending Boston Center
09:28PM 41.8969 -73.9192 254° West 343 395 17,000  Level Boston Center
09:29PM 41.8681 -74.0397 252° West 343 395 17,000 -590 Level Boston Center
09:30PM 41.7936 -74.1381 225° Southwest 355 409 15,800 -1,623 Descending Boston Center
09:31PM 41.7253 -74.2197 222° Southwest 333 383 13,700 -2,033 Descending Boston Center
09:32PM 41.6606 -74.2961 221° Southwest 316 364 11,700 -1,835 Descending Boston Center
09:33PM 41.6042 -74.3628 221° Southwest 273 314 10,000 -1,623 Descending Boston Center
09:34PM 41.5506 -74.4267 222° Southwest 245 282 8,400 -1,475 Descending Boston Center
09:35PM 41.4992 -74.4869 221° Southwest 245 282 7,000 -1,190 Descending Boston Center
09:36PM 41.4458 -74.5492 221° Southwest 250 288 6,000 -496 Descending Boston Center
09:37PM 41.3758 -74.5200 163° South 297 342 6,000 65 Level Boston Center
09:38PM 41.3500 -74.4833 133° Southeast 299 344 6,100 -791 Climbing New York TRACON
09:39PM 41.2833 -74.4000 137° Southeast 297 342 4,800 -1,250 Descending New York TRACON
09:40PM 41.2333 -74.3167 129° Southeast 281 323 3,600 -900 Descending New York TRACON
09:41PM 41.1833 -74.2500 135° Southeast 268 308 3,000 -300 Descending New York TRACON
09:42PM 41.1333 -74.1833 135° Southeast 277 319 3,000  Level New York TRACON
09:43PM 41.0667 -74.1167 143° Southeast 266 306 3,000 -200 Level New York TRACON
09:44PM 41.0167 -74.0667 143° Southeast 237 273 2,600 -550 Descending New York TRACON
09:45PM 40.9667 -74.0500 166° South 195 224 1,900 -600 Descending New York TRACON
09:46PM 40.9167 -74.0500 180° South 148 170 1,400 -600 Descending New York TRACON
09:47PM 40.8833 -74.0500 180° South 133 153 700 -700 Descending New York TRACON
09:49PM 40.8500 -74.0500 143° Southeast  Level FlightAware Approximate
09:56PM 40.8501 -74.0608 143° Southeast  Level Estimated